User: anonymous   Login
Location: Batang Balui
(2.7000°N, 113.7833°E)
Time: 11:19:28
(UTC+00:00)
Language:

CZ-4 DEB - Orbit

View from above orbital plane
View from above orbital plane
View from above satellite
View from above satellite

Ground track
Ground track

The orbit data is extracted from the following two-line orbital elements,

1 28075U 99057NF  23332.31724967  .00002152  00000-0  66012-3 0  9992
2 28075  98.7416   5.1267 0102459  92.8217 268.4702 14.39739403599915
Epoch (UTC): 28 November 2023 07:36:50
Eccentricity: 0.0102459
inclination: 98.7416°
perigee height: 686 km
apogee height: 832 km
right ascension of ascending node: 5.1267°
argument of perigee: 92.8217°
revolutions per day: 14.39739403
mean anomaly at epoch: 268.4702°
orbit number at epoch: 59991

The dashed part of the orbit path shows where the satellite is in the earth's shadow,  

DLR